Copper Mountain, CO

1:44 AM MDT on June 24, 2017 (GMT -0600)
Copper Mountain

Weather History for KCCU - October, 2011

Change the Weather History Date:

Thursday, October 27, 2011

  Actual Average Record
Temperature  
Mean Temperature 21 °F -  
Max Temperature 28 °F - 54 °F (2016)
Min Temperature 14 °F - 12 °F (2006)
Degree Days  
Heating Degree Days 44    
Month to date heating degree days  
Cooling Degree Days 0    
Month to date cooling degree days  
Moisture  
Dew Point 4 °F    
Average Humidity 52    
Maximum Humidity 80    
Minimum Humidity 15    
Precipitation  
Precipitation 0.06 in - 0.06 in (2002)
Sea Level Pressure  
Sea Level Pressure 30.14 in    
Wind  
Wind Speed 12 mph (West)    
Max Wind Speed 22 mph    
Max Gust Speed 26 mph    
Visibility 10 miles    
Events      
T = Trace of Precipitation, MM = Missing Value Source: NWS Daily Summary

Daily Weather History Graph

Daily Weather History Graph

Search for Another Location

Airport or City:

Trip Planner

Search our weather history database for the weather conditions in past years. The results will help you decide how hot, cold, wet, or windy it might be!

Date:

Astronomy

Oct. 27, 2011 Rise Set
Actual Time 7:27 AM MDT 6:09 PM MDT
Civil Twilight 6:59 AM MDT 6:36 PM MDT
Nautical Twilight 6:27 AM MDT 7:08 PM MDT
Astronomical Twilight 5:56 AM MDT 7:39 PM MDT
Moon 8:32 AM MDT (10/27) 6:41 PM MDT (10/27)
Length of Visible Light 11h 37m
Length of Day
10h 42m
New Moon, 1% of the Moon is Illuminated
Oct 27
New Moon
Nov 2
First Quarter
Nov 10
Full
Nov 18
Last Quarter
Nov 24
New

Hourly Weather History & Observations

Time (MDT) Temp. Windchill Dew Point Humidity Pressure Visibility Wind Dir Wind Speed Gust Speed Precip Events Conditions
12:05 AM 19.4 °F - 14.0 °F 80% 30.12 in - North - - N/A   Overcast
12:25 AM 17.6 °F 3.7 °F 10.4 °F 73% 30.12 in - South 13.8 mph - N/A   Overcast
12:45 AM 17.6 °F - 10.4 °F 73% 30.11 in - North - - N/A   Scattered Clouds
1:05 AM 17.6 °F - 12.2 °F 79% 30.12 in - North - - N/A   Clear
1:25 AM 17.6 °F - 12.2 °F 79% 30.12 in - North - - N/A   Scattered Clouds
1:45 AM 17.6 °F - 12.2 °F 79% 30.11 in - North - - N/A   Clear
2:05 AM 17.6 °F 4.3 °F 12.2 °F 79% 30.10 in - West 12.7 mph - N/A   Clear
2:25 AM 17.6 °F 5.7 °F 12.2 °F 79% 30.10 in - West 10.4 mph - N/A   Clear
2:45 AM 19.4 °F - 14.0 °F 80% 30.10 in - North - - N/A   Clear
3:05 AM 17.6 °F - 12.2 °F 79% 30.11 in - North - - N/A   Clear
3:26 AM 17.6 °F 3.2 °F 10.4 °F 73% 30.12 in - West 15.0 mph 19.6 mph N/A   Clear
3:46 AM 14.0 °F -1.4 °F 8.6 °F 79% 30.12 in - West 15.0 mph - N/A   Scattered Clouds
4:06 AM 15.8 °F 4.2 °F 10.4 °F 79% 30.12 in - West 9.2 mph - N/A   Overcast
4:26 AM 14.0 °F -0.8 °F 8.6 °F 79% 30.10 in - West 13.8 mph - N/A   Mostly Cloudy
4:45 AM 15.8 °F 1.4 °F 10.4 °F 79% 30.10 in - West 13.8 mph 19.6 mph N/A   Scattered Clouds
5:06 AM 14.0 °F 2.9 °F 8.6 °F 79% 30.11 in - West 8.1 mph - N/A   Clear
5:26 AM 17.6 °F 1.7 °F 10.4 °F 73% 30.10 in - West 18.4 mph - N/A   Clear
6:06 AM 15.8 °F - 8.6 °F 73% 30.11 in - North - - N/A   Clear
6:25 AM 17.6 °F - 6.8 °F 63% 30.10 in - North - - N/A   Clear
6:46 AM 17.6 °F 7.3 °F 3.2 °F 53% 30.10 in - West 8.1 mph - N/A   Clear
7:06 AM 19.4 °F - 3.2 °F 49% 30.10 in - North - - N/A   Clear
7:25 AM 19.4 °F - 3.2 °F 49% 30.10 in - North - - N/A   Clear
7:45 AM 19.4 °F 6.0 °F 3.2 °F 49% 30.11 in - West 13.8 mph - N/A   Clear
8:05 AM 19.4 °F 5.5 °F 1.4 °F 46% 30.12 in - West 15.0 mph - N/A   Clear
8:25 AM 19.4 °F 12.8 °F 1.4 °F 46% 30.12 in - WSW 4.6 mph - N/A   Clear
8:45 AM 21.2 °F 10.1 °F -4.0 °F 33% 30.13 in - West 10.4 mph - N/A   Clear
9:05 AM 19.4 °F 6.0 °F -5.8 °F 33% 30.14 in 10.0 mi West 13.8 mph - N/A   Clear
9:25 AM 19.4 °F 11.5 °F -9.4 °F 28% 30.14 in 10.0 mi WSW 5.8 mph - N/A   Clear
9:45 AM 21.2 °F 8.9 °F -14.8 °F 20% 30.14 in 10.0 mi West 12.7 mph - N/A   Clear
10:05 AM 23.0 °F 15.8 °F -18.4 °F 15% 30.15 in 10.0 mi WSW 5.8 mph - N/A   Clear
10:25 AM 23.0 °F 12.4 °F -18.4 °F 15% 30.15 in 10.0 mi West 10.4 mph - N/A   Clear
10:45 AM 23.0 °F 13.9 °F -5.8 °F 28% 30.16 in 10.0 mi West 8.1 mph 16.1 mph N/A   Clear
11:05 AM 24.8 °F 19.1 °F 6.8 °F 46% 30.15 in 10.0 mi SSW 4.6 mph - N/A   Clear
11:25 AM 24.8 °F 17.9 °F -4.0 °F 28% 30.16 in 10.0 mi SW 5.8 mph 17.3 mph N/A   Clear
11:45 AM 26.6 °F 22.6 °F -4.0 °F 26% 30.15 in 10.0 mi SW 3.5 mph - 0.02 in   Clear
12:25 PM 26.6 °F 21.2 °F 5.0 °F 40% 30.16 in 10.0 mi SW 4.6 mph - 0.01 in   Clear
12:45 PM 26.6 °F - -2.2 °F 29% 30.15 in 10.0 mi Calm Calm - 0.01 in   Clear
1:25 PM 26.6 °F 13.4 °F -4.0 °F 26% 30.15 in 10.0 mi West 18.4 mph - N/A   Clear
2:25 PM 28.4 °F 17.5 °F -9.4 °F 19% 30.15 in 10.0 mi West 13.8 mph - N/A   Mostly Cloudy
2:45 PM 26.6 °F 13.1 °F -5.8 °F 24% 30.15 in 10.0 mi West 19.6 mph - N/A   Scattered Clouds
3:05 PM 28.4 °F 17.0 °F 6.8 °F 40% 30.15 in 10.0 mi West 15.0 mph 19.6 mph N/A   Scattered Clouds
3:25 PM 28.4 °F 17.0 °F 5.0 °F 37% 30.15 in 10.0 mi West 15.0 mph 19.6 mph 0.01 in   Scattered Clouds
3:46 PM 28.4 °F 16.2 °F 5.0 °F 37% 30.15 in 10.0 mi West 17.3 mph 20.7 mph 0.03 in   Mostly Cloudy
4:06 PM 26.6 °F 16.8 °F 8.6 °F 47% 30.15 in 10.0 mi West 10.4 mph - N/A   Overcast
4:25 PM 24.8 °F 12.9 °F 6.8 °F 46% 30.16 in 10.0 mi West 13.8 mph - N/A   Overcast
4:45 PM 24.8 °F 13.4 °F 5.0 °F 43% 30.17 in 10.0 mi West 12.7 mph 16.1 mph N/A   Overcast
5:05 PM 24.8 °F 13.4 °F 3.2 °F 40% 30.17 in 10.0 mi West 12.7 mph - N/A   Overcast
5:25 PM 23.0 °F 11.7 °F 5.0 °F 46% 30.18 in 10.0 mi West 11.5 mph - N/A   Overcast
5:45 PM 23.0 °F 11.7 °F 1.4 °F 39% 30.18 in 10.0 mi West 11.5 mph 19.6 mph N/A   Overcast
6:05 PM 23.0 °F 10.1 °F 3.2 °F 43% 30.19 in - West 15.0 mph 21.9 mph N/A   Overcast
6:25 PM 23.0 °F 10.6 °F 3.2 °F 43% 30.19 in - West 13.8 mph - N/A   Overcast
6:45 PM 21.2 °F 9.5 °F 5.0 °F 50% 30.20 in - WSW 11.5 mph 16.1 mph N/A   Scattered Clouds
7:06 PM 19.4 °F 7.2 °F 5.0 °F 54% 30.20 in - West 11.5 mph - N/A   Clear
7:25 PM 21.2 °F 10.9 °F 5.0 °F 50% 30.21 in - West 9.2 mph - N/A   Clear
7:45 PM 19.4 °F 6.0 °F 5.0 °F 54% 30.21 in - West 13.8 mph - N/A   Clear
8:06 PM 19.4 °F 5.5 °F 6.8 °F 58% 30.20 in - West 15.0 mph - N/A   Clear
8:25 PM 21.2 °F 5.2 °F 8.6 °F 58% 30.20 in - West 21.9 mph - N/A   Clear
8:45 PM 21.2 °F 5.2 °F 8.6 °F 58% 30.21 in - West 21.9 mph 26.5 mph N/A   Clear
9:05 PM 19.4 °F 5.0 °F 8.6 °F 63% 30.22 in - West 16.1 mph 21.9 mph N/A   Clear
9:26 PM 19.4 °F - 8.6 °F 63% 30.22 in - North - - N/A   Clear
9:45 PM 19.4 °F 4.1 °F 8.6 °F 63% 30.22 in - West 18.4 mph 27.6 mph N/A   Clear
10:05 PM 19.4 °F - 10.4 °F 68% 30.23 in - North - - N/A   Clear
10:25 PM 19.4 °F - 10.4 °F 68% 30.23 in - North - - N/A   Clear
10:45 PM 19.4 °F - 12.2 °F 74% 30.23 in - North - - N/A   Clear
11:05 PM 19.4 °F 3.6 °F 12.2 °F 74% 30.24 in - West 19.6 mph - N/A   Clear
11:25 PM 17.6 °F - 12.2 °F 79% 30.24 in - North - - N/A   Clear
11:45 PM 19.4 °F - 14.0 °F 80% 30.24 in - North - - N/A   Clear